Flag for Brazil Weather past 2 weeks in Maceió, Alagoas, Brazil

Now
82 °F

Scattered clouds.


Feels Like: 86 °F
Forecast: 72 / 84 °F
Wind: 13 mph from Southeast

Location: Maceio Aeroporto

Current Time: May 29, 2015 at 2:10:35 PM

Latest Report: May 29, 2015 at 1:00 PM


Visibility: N/A

Pressure: 29.92 "Hg

Humidity: 66%

Dew point: 70 °F

Location of MaceióLocation

Historic Weather in Maceió — Graph

°F

Maceió temperature yesterday

Maximum temperature yesterday: 79 °F (at 2:00 PM)
Minimum temperature yesterday: 66 °F (at 6:00 AM)
Average temperature yesterday: 71 °F

Past Weeks' High & Low Weather Summary

 TemperatureHumidityPressure
High88 °F (May 17, 1:00 PM)100% (May 15, 2:00 AM)30.09 "Hg (May 15, 2:00 AM)
Low64 °F (May 29, 2:00 AM)43% (May 17, 1:00 PM)29.89 "Hg (May 25, 3:00 PM)
Average75 °F84%29.98 "Hg
* Reported May 14 1:00 PM — May 29 1:00 PM, Maceió, Weather by CustomWeather, © 2015

Note: Actual official high and low records may vary slightly from our data, if they occured in-between our weather recording intervals... More about our weather records

Advertising

Maceió weather history for previous 24 hours

 ConditionsComfort  
Time TempWeatherWind HumidityBarometerVisibility
1:00 PM
Fri, May 29
82 °FScattered clouds.13 mph66%29.92 "HgN/A
12:00 PM82 °FScattered clouds.9 mph62%29.92 "HgN/A
11:00 AM84 °FScattered clouds.7 mph62%29.95 "HgN/A
10:00 AM81 °FScattered clouds.6 mph74%29.98 "HgN/A
9:00 AM77 °FScattered clouds.3 mph83%29.98 "HgN/A
8:00 AM75 °FPassing clouds.6 mph89%29.98 "HgN/A
7:00 AM68 °FPassing clouds.2 mph94%29.95 "HgN/A
6:00 AM64 °FSunny.6 mph100%29.95 "Hg10 mi
5:00 AM64 °FClear.5 mph100%29.92 "Hg10 mi
4:00 AM64 °FClear.3 mph100%29.92 "Hg10 mi
3:00 AM64 °FClear.3 mph100%29.92 "Hg10 mi
2:00 AM64 °FClear.3 mph100%29.92 "Hg10 mi
1:00 AM66 °FClear.6 mph94%29.95 "Hg10 mi
12:00 AM66 °FClear.3 mph94%29.98 "Hg10 mi
11:00 PM
Thu, May 28
66 °FPassing clouds.3 mph100%29.98 "HgN/A
10:00 PM68 °FPassing clouds.No wind94%29.98 "HgN/A
9:00 PM68 °FPassing clouds.3 mph94%29.98 "HgN/A
8:00 PM68 °FPassing clouds.No wind94%29.95 "HgN/A
7:00 PM70 °FPassing clouds.3 mph94%29.95 "HgN/A
6:00 PM70 °FPassing clouds.3 mph94%29.95 "HgN/A
5:00 PM75 °FPassing clouds.7 mph78%29.92 "HgN/A
4:00 PM77 °FScattered clouds.9 mph69%29.92 "HgN/A
3:00 PM77 °FBroken clouds.6 mph83%29.92 "HgN/A
2:00 PM79 °FBroken clouds.8 mph79%29.92 "HgN/A
Weather by CustomWeather, © 2015

See weather overviewHow to use our weather pages